This demonstration page uses our WeatherBlox Daily Observations layout. Learn more.

Left ArrowRight Arrow

39.92423, -83.80882

Hourly Observations for August 4, 2020

Temp ( °F °C ) Dew Point ( °F °C ) Humidity (%) Winds ( mph kmh ) Pressure ( in mb ) Visibility ( mi km ) Precip ( " mm )
12:53 am 00:53 Mostly Clear 64 18 64 18 100 100 N N/A 29.95 1014 8 13 N/A
12:56 am 00:56 Mostly Clear 64 17.8 64 17.8 100 100 N N/A 29.95 1014 8 13 N/A
1:42 am 01:42 Partly Cloudy with Mist and Fog 63 17 63 17 100 100 NNW 3 6 29.94 1014 1 2 N/A
1:44 am 01:44 Mostly Cloudy with Mist and Fog 63 17 63 17 100 100 NNW 3 6 29.94 1014 1 1 N/A
1:48 am 01:48 Mostly Cloudy with Fog 64 18 64 18 100 100 NNW 3 6 29.93 1014 0 0 N/A
1:56 am 01:56 Mostly Cloudy with Fog 64 17.8 64 17.8 100 100 NW 3 6 29.93 1014 0 0 N/A
2:39 am 02:39 Cloudy with Mist and Fog 64 18 64 18 100 100 N N/A 29.92 1013 1 1 N/A
2:51 am 02:51 Cloudy with Fog 64 18 64 18 100 100 N N/A 29.91 1013 1 1 N/A
2:56 am 02:56 Cloudy with Fog 64 17.8 64 17.8 100 100 N N/A 29.91 1013 1 1 N/A
3:04 am 03:04 Cloudy with Fog 64 18 64 18 100 100 WNW 3 6 29.91 1013 0 0 N/A
3:26 am 03:26 Cloudy with Fog 64 18 64 18 100 100 W 5 7 29.91 1013 1 1 N/A
3:29 am 03:29 Cloudy with Mist and Fog 64 18 64 18 100 100 W 3 6 29.91 1013 1 1 N/A
3:33 am 03:33 Cloudy with Mist and Fog 64 18 64 18 100 100 W 5 7 29.91 1013 1 2 N/A
3:40 am 03:40 Cloudy with Mist and Fog 64 18 64 18 100 100 WNW 3 6 29.90 1013 3 5 N/A
3:56 am 03:56 Cloudy with Mist and Fog 65 18.3 65 18.3 100 100 WNW 5 7 29.91 1013 3 5 N/A
4:07 am 04:07 Cloudy with Mist and Fog 64 18 64 18 100 100 WNW 8 13 29.90 1013 3 4 N/A
4:22 am 04:22 Cloudy with Mist and Fog 64 18 64 18 100 100 WNW 9 15 29.90 1013 3 5 N/A
4:56 am 04:56 Cloudy with Mist and Fog 65 18.3 65 18.3 100 100 W 6 9 29.90 1013 3 4 N/A
5:11 am 05:11 Cloudy with Mist and Fog 66 19 66 19 100 100 WNW 7 11 29.90 1012 2 2 N/A
5:39 am 05:39 Cloudy with Mist and Fog 66 19 66 19 100 100 NW 8 13 29.91 1013 3 4 N/A
5:47 am 05:47 Cloudy with Mist and Fog 66 19 66 19 100 100 NW 8 13 29.91 1013 4 6 N/A
5:56 am 05:56 Cloudy with Mist and Fog 66 18.9 66 18.9 100 100 WNW 5 7 29.91 1013 4 6 N/A
6:37 am 06:37 Cloudy with Mist and Fog 64 18 64 18 100 100 NW 9 15 29.92 1013 4 6 N/A
6:56 am 06:56 Cloudy with Mist and Fog 65 18.3 65 18.3 100 100 NNW 7 11 29.93 1014 3 4 N/A
7:07 am 07:07 Cloudy with Mist and Fog 64 18 64 18 100 100 NW 5 7 29.92 1013 4 6 N/A
7:28 am 07:28 Cloudy with Mist and Fog 64 18 64 18 100 100 NW 5 7 29.93 1014 6 10 N/A
7:56 am 07:56 Cloudy 65 18.3 65 18.3 100 100 undefined N/A 29.94 1014 9 14 N/A
8:31 am 08:31 Cloudy 64 18 64 18 100 100 WNW 5 7 29.93 1014 8 13 N/A
8:56 am 08:56 Cloudy 65 18.3 65 18.3 100 100 NNW 3 6 29.94 1014 7 11 N/A
9:56 am 09:56 Cloudy 66 18.9 66 18.9 100 100 NW 8 13 29.95 1014 7 11 N/A
10:56 am 10:56 Cloudy with Rain 67 19.4 67 19.4 100 100 WNW 7 11 29.97 1015 7 11 N/A
11:10 am 11:10 Cloudy with Rain 66 19 66 19 100 100 NW 3 6 29.96 1014 8 13 N/A
11:52 am 11:52 Cloudy 70 21 70 21 100 100 WNW 7 11 29.95 1014 10 16 N/A
11:56 am 11:56 Cloudy 69 20.6 69 20.6 100 100 WNW 9 15 29.97 1015 10 16 N/A
12:05 pm 12:05 Cloudy 70 21 70 21 100 100 WNW 7 11 29.95 1014 10 16 N/A
12:37 pm 12:37 Mostly Cloudy 72 22 68 20 88 88 WNW 8 13 29.94 1014 10 16 N/A
12:56 pm 12:56 Cloudy 73 22.8 68 20 84 84 undefined N/A 29.97 1015 10 16 N/A
1:06 pm 13:06 Cloudy 73 23 66 19 78 78 WNW 8 13 29.94 1014 10 16 N/A
1:56 pm 13:56 Mostly Cloudy 74 23.3 66 18.9 76 76 WNW 9 15 29.96 1015 10 16 N/A
2:56 pm 14:56 Partly Cloudy 75 23.9 65 18.3 71 71 W 8 13 29.96 1015 10 16 N/A
3:17 pm 15:17 Mostly Cloudy with Haze 73 23 64 18 74 74 NW 7 11 29.94 1014 3 4 N/A
3:27 pm 15:27 Cloudy 73 23 64 18 74 74 WNW 5 7 29.94 1014 10 16 N/A
3:56 pm 15:56 Mostly Cloudy 77 25 65 18.3 66 66 WNW 14 22 29.96 1015 10 16 N/A
4:56 pm 16:56 Cloudy 73 22.8 63 17.2 71 71 WNW 10 17 29.97 1015 10 16 N/A
5:56 pm 17:56 Mostly Cloudy 75 23.9 64 17.8 69 69 NW 12 19 29.98 1015 10 16 N/A
6:56 pm 18:56 Partly Cloudy 73 22.8 61 16.1 66 66 WNW 10 17 29.98 1015 10 16 N/A
7:56 pm 19:56 Partly Cloudy 71 21.7 59 15 66 66 WNW 9 15 29.99 1016 10 16 N/A
8:56 pm 20:56 Mostly Clear 67 19.4 60 15.6 79 79 NW 7 11 30.01 1016 10 16 N/A
9:56 pm 21:56 Clear 63 17.2 61 16.1 93 93 N 3 6 30.04 1017 10 16 N/A
10:56 pm 22:56 Clear 60 15.6 60 15.6 100 100 W 3 6 30.06 1018 10 16 N/A
11:56 pm 23:56 Clear 59 15 59 15 100 100 W 3 6 30.07 1018 10 16 N/A

Powered by AerisWeather